contact:dominique.lefevre@mio.osupytheas.fr, maurice.libes@osupytheas.fr, didier.mallarino@osupytheas.fr
Project:EMSO http://www.emso-fr.org/EMSO-France
Depth: 2436.0 m
Title:EMSO Ligure Ouest : Data MII capteur MICROCAT
DateTime_Computer,Latitude,Longitude,Temperature,Conductivity,Pressure,DateTime_Instrument
DateTime_Computer,Latitude,Longitude,degC,S m-1,dbar,DateTime_Instrument
2022-01-21T00:01:28Z,42.805,6.029,13.3039,4.60102,2470.18,2022-1-21T02:02:59Z
2022-01-21T00:04:31Z,42.805,6.029,13.3037,4.60102,2470.147,2022-1-21T02:06:02Z
2022-01-21T00:07:34Z,42.805,6.029,13.3026,4.60123,2470.156,2022-1-21T02:09:06Z
2022-01-21T00:10:37Z,42.805,6.029,13.3027,4.60070,2470.133,2022-1-21T02:12:09Z
2022-01-21T00:13:40Z,42.805,6.029,13.3026,4.60081,2470.171,2022-1-21T02:15:12Z
2022-01-21T00:16:43Z,42.805,6.029,13.3033,4.60109,2470.11,2022-1-21T02:18:15Z
2022-01-21T00:19:47Z,42.805,6.029,13.3019,4.60091,2470.11,2022-1-21T02:21:18Z
2022-01-21T00:22:50Z,42.805,6.029,13.3019,4.60075,2470.147,2022-1-21T02:24:21Z
2022-01-21T00:25:53Z,42.805,6.029,13.3013,4.60103,2470.147,2022-1-21T02:27:24Z
2022-01-21T00:28:56Z,42.805,6.029,13.3029,4.60084,2470.133,2022-1-21T02:30:27Z
2022-01-21T00:31:59Z,42.805,6.029,13.3021,4.60067,2470.087,2022-1-21T02:33:31Z
2022-01-21T00:35:02Z,42.805,6.029,13.3017,4.60092,2470.11,2022-1-21T02:36:34Z
2022-01-21T00:38:05Z,42.805,6.029,13.3021,4.60079,2470.1,2022-1-21T02:39:37Z
2022-01-21T00:41:08Z,42.805,6.029,13.3032,4.60101,2470.087,2022-1-21T02:42:40Z
2022-01-21T00:44:12Z,42.805,6.029,13.3021,4.60067,2470.133,2022-1-21T02:45:43Z
2022-01-21T00:47:15Z,42.805,6.029,13.3019,4.60076,2470.124,2022-1-21T02:48:46Z
2022-01-21T00:50:18Z,42.805,6.029,13.3019,4.60085,2470.124,2022-1-21T02:51:49Z
2022-01-21T00:53:21Z,42.805,6.029,13.3015,4.60084,2470.124,2022-1-21T02:54:52Z
2022-01-21T00:56:24Z,42.805,6.029,13.3018,4.60073,2470.11,2022-1-21T02:57:56Z
2022-01-21T00:59:27Z,42.805,6.029,13.3012,4.60075,2470.063,2022-1-21T03:00:59Z
2022-01-21T01:02:30Z,42.805,6.029,13.3013,4.60087,2470.077,2022-1-21T03:04:02Z
2022-01-21T01:05:33Z,42.805,6.029,13.3029,4.60095,2470.087,2022-1-21T03:07:05Z
2022-01-21T01:08:37Z,42.805,6.029,13.3024,4.60073,2470.087,2022-1-21T03:10:08Z
2022-01-21T01:11:40Z,42.805,6.029,13.3016,4.60094,2470.1,2022-1-21T03:13:11Z
2022-01-21T01:14:43Z,42.805,6.029,13.3031,4.60075,2470.077,2022-1-21T03:16:14Z
2022-01-21T01:17:46Z,42.805,6.029,13.3016,4.60088,2470.087,2022-1-21T03:19:17Z
2022-01-21T01:20:49Z,42.805,6.029,13.3021,4.60074,2470.1,2022-1-21T03:22:20Z
2022-01-21T01:23:52Z,42.805,6.029,13.3017,4.60077,2470.087,2022-1-21T03:25:24Z
2022-01-21T01:26:55Z,42.805,6.029,13.3017,4.60076,2470.063,2022-1-21T03:28:27Z
2022-01-21T01:29:58Z,42.805,6.029,13.3016,4.60072,2470.11,2022-1-21T03:31:30Z
2022-01-21T01:33:02Z,42.805,6.029,13.3024,4.60076,2470.063,2022-1-21T03:34:33Z
2022-01-21T01:36:05Z,42.805,6.029,13.3024,4.60088,2470.063,2022-1-21T03:37:36Z
2022-01-21T01:39:08Z,42.805,6.029,13.3036,4.60104,2470.077,2022-1-21T03:40:39Z
2022-01-21T01:42:11Z,42.805,6.029,13.3023,4.60064,2470.053,2022-1-21T03:43:42Z
2022-01-21T01:45:14Z,42.805,6.029,13.3015,4.60083,2470.1,2022-1-21T03:46:45Z
2022-01-21T01:48:17Z,42.805,6.029,13.3020,4.60059,2470.073,2022-1-21T03:49:49Z
2022-01-21T01:51:20Z,42.805,6.029,13.3030,4.60073,2470.087,2022-1-21T03:52:52Z
2022-01-21T01:54:23Z,42.805,6.029,13.3014,4.60087,2470.053,2022-1-21T03:55:55Z
2022-01-21T01:57:27Z,42.805,6.029,13.3021,4.60075,2470.026,2022-1-21T03:58:58Z
2022-01-21T02:00:30Z,42.805,6.029,13.3011,4.60077,2470.053,2022-1-21T04:02:01Z
2022-01-21T02:03:33Z,42.805,6.029,13.3015,4.60067,2470.053,2022-1-21T04:05:04Z
2022-01-21T02:06:36Z,42.805,6.029,13.3019,4.60063,2470.063,2022-1-21T04:08:07Z
2022-01-21T02:09:39Z,42.805,6.029,13.3015,4.60061,2470.087,2022-1-21T04:11:10Z
2022-01-21T02:12:42Z,42.805,6.029,13.3017,4.60064,2470.053,2022-1-21T04:14:14Z
2022-01-21T02:15:45Z,42.805,6.029,13.3016,4.60070,2470.04,2022-1-21T04:17:17Z
2022-01-21T02:18:48Z,42.805,6.029,13.3021,4.60064,2470.063,2022-1-21T04:20:20Z
2022-01-21T02:21:51Z,42.805,6.029,13.3020,4.60060,2470.1,2022-1-21T04:23:23Z
2022-01-21T02:24:55Z,42.805,6.029,13.3016,4.60056,2470.03,2022-1-21T04:26:26Z
2022-01-21T02:27:58Z,42.805,6.029,13.3009,4.60051,2470.077,2022-1-21T04:29:29Z
2022-01-21T02:31:01Z,42.805,6.029,13.3012,4.60055,2470.063,2022-1-21T04:32:32Z
2022-01-21T02:34:04Z,42.805,6.029,13.3014,4.60057,2470.077,2022-1-21T04:35:35Z
2022-01-21T02:37:07Z,42.805,6.029,13.3019,4.60077,2470.1,2022-1-21T04:38:39Z
2022-01-21T02:40:10Z,42.805,6.029,13.3015,4.60062,2470.03,2022-1-21T04:41:42Z
2022-01-21T02:43:13Z,42.805,6.029,13.3014,4.60051,2470.017,2022-1-21T04:44:45Z
2022-01-21T02:46:17Z,42.805,6.029,13.3031,4.60075,2470.077,2022-1-21T04:47:48Z
2022-01-21T02:49:20Z,42.805,6.029,13.3027,4.60075,2470.04,2022-1-21T04:50:51Z
2022-01-21T02:52:23Z,42.805,6.029,13.3015,4.60069,2470.04,2022-1-21T04:53:54Z
2022-01-21T02:55:26Z,42.805,6.029,13.3028,4.60078,2470.04,2022-1-21T04:56:57Z
2022-01-21T02:58:29Z,42.805,6.029,13.3019,4.60061,2470.04,2022-1-21T05:00:00Z
2022-01-21T03:01:32Z,42.805,6.029,13.3014,4.60064,2470.03,2022-1-21T05:03:04Z
2022-01-21T03:04:35Z,42.805,6.029,13.3014,4.60060,2470.04,2022-1-21T05:06:07Z
2022-01-21T03:07:38Z,42.805,6.029,13.3012,4.60054,2470.017,2022-1-21T05:09:10Z
2022-01-21T03:10:41Z,42.805,6.029,13.3014,4.60053,2470.03,2022-1-21T05:12:13Z
2022-01-21T03:13:45Z,42.805,6.029,13.3014,4.60062,2470.04,2022-1-21T05:15:16Z
2022-01-21T03:16:48Z,42.805,6.029,13.3009,4.60053,2469.993,2022-1-21T05:18:19Z
2022-01-21T03:19:51Z,42.805,6.029,13.3014,4.60058,2470.017,2022-1-21T05:21:22Z
2022-01-21T03:22:54Z,42.805,6.029,13.3019,4.60056,2470.053,2022-1-21T05:24:25Z
2022-01-21T03:25:57Z,42.805,6.029,13.3024,4.60067,2470.017,2022-1-21T05:27:29Z
2022-01-21T03:29:00Z,42.805,6.029,13.3015,4.60055,2470.017,2022-1-21T05:30:32Z
2022-01-21T03:32:03Z,42.805,6.029,13.3021,4.60058,2470.053,2022-1-21T05:33:35Z
2022-01-21T03:35:06Z,42.805,6.029,13.3019,4.60074,2470.053,2022-1-21T05:36:38Z
2022-01-21T03:38:10Z,42.805,6.029,13.3021,4.60059,2470.017,2022-1-21T05:39:41Z
2022-01-21T03:41:13Z,42.805,6.029,13.3014,4.60062,2469.984,2022-1-21T05:42:44Z
2022-01-21T03:44:16Z,42.805,6.029,13.3019,4.60075,2470.007,2022-1-21T05:45:47Z
2022-01-21T03:47:19Z,42.805,6.029,13.3041,4.60070,2470.053,2022-1-21T05:48:50Z
2022-01-21T03:50:22Z,42.805,6.029,13.3019,4.60059,2470.03,2022-1-21T05:51:54Z
2022-01-21T03:53:25Z,42.805,6.029,13.3023,4.60067,2470.03,2022-1-21T05:54:57Z
2022-01-21T03:56:28Z,42.805,6.029,13.3018,4.60075,2470.03,2022-1-21T05:58:00Z
2022-01-21T03:59:31Z,42.805,6.029,13.3021,4.60081,2470.017,2022-1-21T06:01:03Z
2022-01-21T04:02:35Z,42.805,6.029,13.3029,4.60079,2470.077,2022-1-21T06:04:06Z
2022-01-21T04:05:38Z,42.805,6.029,13.3015,4.60075,2470.053,2022-1-21T06:07:09Z
2022-01-21T04:08:41Z,42.805,6.029,13.3019,4.60074,2470.053,2022-1-21T06:10:12Z
2022-01-21T04:11:44Z,42.805,6.029,13.3011,4.60062,2470.017,2022-1-21T06:13:15Z
2022-01-21T04:14:47Z,42.805,6.029,13.3022,4.60097,2470.017,2022-1-21T06:16:19Z
2022-01-21T04:38:08Z,42.805,6.029,13.3019,4.60080,2470.04,2022-1-21T06:39:39Z
2022-01-21T04:41:11Z,42.805,6.029,13.3028,4.60070,2470.017,2022-1-21T06:42:42Z
2022-01-21T04:44:14Z,42.805,6.029,13.3029,4.60069,2470.053,2022-1-21T06:45:46Z
2022-01-21T04:47:17Z,42.805,6.029,13.3024,4.60069,2469.993,2022-1-21T06:48:49Z
2022-01-21T04:50:20Z,42.805,6.029,13.3031,4.60089,2470.017,2022-1-21T06:51:52Z
2022-01-21T04:53:23Z,42.805,6.029,13.3041,4.60084,2469.993,2022-1-21T06:54:55Z
2022-01-21T04:56:27Z,42.805,6.029,13.3031,4.60086,2470.04,2022-1-21T06:57:58Z
2022-01-21T04:59:30Z,42.805,6.029,13.3024,4.60065,2470.03,2022-1-21T07:01:01Z
2022-01-21T05:02:33Z,42.805,6.029,13.3031,4.60070,2470.04,2022-1-21T07:04:04Z
2022-01-21T05:05:36Z,42.805,6.029,13.3041,4.60089,2470.04,2022-1-21T07:07:07Z
2022-01-21T05:08:39Z,42.805,6.029,13.3037,4.60099,2470.017,2022-1-21T07:10:11Z
2022-01-21T05:11:42Z,42.805,6.029,13.3036,4.60098,2470.053,2022-1-21T07:13:14Z
2022-01-21T05:14:45Z,42.805,6.029,13.3021,4.60086,2470.03,2022-1-21T07:16:17Z
2022-01-21T05:17:48Z,42.805,6.029,13.3041,4.60083,2470.04,2022-1-21T07:19:20Z
2022-01-21T05:20:52Z,42.805,6.029,13.3028,4.60094,2470.063,2022-1-21T07:22:23Z
2022-01-21T05:23:55Z,42.805,6.029,13.3045,4.60094,2470.063,2022-1-21T07:25:26Z
2022-01-21T05:26:58Z,42.805,6.029,13.3025,4.60094,2470.077,2022-1-21T07:28:29Z
2022-01-21T05:30:01Z,42.805,6.029,13.3034,4.60101,2470.077,2022-1-21T07:31:32Z
2022-01-21T05:33:04Z,42.805,6.029,13.3042,4.60087,2470.063,2022-1-21T07:34:36Z
2022-01-21T05:36:07Z,42.805,6.029,13.3046,4.60111,2470.053,2022-1-21T07:37:39Z
2022-01-21T05:39:10Z,42.805,6.029,13.3023,4.60107,2470.087,2022-1-21T07:40:42Z
2022-01-21T05:42:13Z,42.805,6.029,13.3037,4.60085,2470.1,2022-1-21T07:43:45Z
2022-01-21T05:45:17Z,42.805,6.029,13.3019,4.60074,2470.077,2022-1-21T07:46:48Z
2022-01-21T05:48:20Z,42.805,6.029,13.3025,4.60111,2470.11,2022-1-21T07:49:51Z
2022-01-21T05:51:23Z,42.805,6.029,13.3058,4.60097,2470.087,2022-1-21T07:52:54Z
2022-01-21T05:54:26Z,42.805,6.029,13.3043,4.60117,2470.087,2022-1-21T07:55:57Z
2022-01-21T05:57:29Z,42.805,6.029,13.3039,4.60117,2470.124,2022-1-21T07:59:01Z
2022-01-21T06:00:32Z,42.805,6.029,13.3039,4.60114,2470.063,2022-1-21T08:02:04Z
2022-01-21T06:03:35Z,42.805,6.029,13.3030,4.60099,2470.124,2022-1-21T08:05:07Z
2022-01-21T06:06:38Z,42.805,6.029,13.3038,4.60082,2470.133,2022-1-21T08:08:10Z
2022-01-21T06:09:42Z,42.805,6.029,13.3043,4.60102,2470.124,2022-1-21T08:11:13Z
2022-01-21T06:12:45Z,42.805,6.029,13.3040,4.60119,2470.11,2022-1-21T08:14:16Z
2022-01-21T06:15:48Z,42.805,6.029,13.3061,4.60097,2470.124,2022-1-21T08:17:19Z
2022-01-21T06:18:51Z,42.805,6.029,13.3038,4.60118,2470.11,2022-1-21T08:20:22Z
2022-01-21T06:21:54Z,42.805,6.029,13.3039,4.60106,2470.124,2022-1-21T08:23:26Z
2022-01-21T06:24:57Z,42.805,6.029,13.3042,4.60123,2470.147,2022-1-21T08:26:29Z
2022-01-21T06:28:00Z,42.805,6.029,13.3040,4.60116,2470.11,2022-1-21T08:29:32Z
2022-01-21T06:31:03Z,42.805,6.029,13.3047,4.60090,2470.156,2022-1-21T08:32:35Z
2022-01-21T06:34:07Z,42.805,6.029,13.3033,4.60128,2470.18,2022-1-21T08:35:38Z
2022-01-21T06:37:10Z,42.805,6.029,13.3048,4.60095,2470.147,2022-1-21T08:38:41Z
2022-01-21T06:40:13Z,42.805,6.029,13.3048,4.60117,2470.203,2022-1-21T08:41:44Z
2022-01-21T06:43:16Z,42.805,6.029,13.3027,4.60104,2470.217,2022-1-21T08:44:47Z
2022-01-21T06:46:19Z,42.805,6.029,13.3060,4.60105,2470.18,2022-1-21T08:47:51Z
2022-01-21T06:49:22Z,42.805,6.029,13.3054,4.60117,2470.203,2022-1-21T08:50:54Z
2022-01-21T06:52:25Z,42.805,6.029,13.3056,4.60112,2470.194,2022-1-21T08:53:57Z
2022-01-21T06:55:28Z,42.805,6.029,13.3039,4.60121,2470.156,2022-1-21T08:57:00Z
2022-01-21T06:58:32Z,42.805,6.029,13.3046,4.60114,2470.171,2022-1-21T09:00:03Z
2022-01-21T07:01:35Z,42.805,6.029,13.3057,4.60135,2470.18,2022-1-21T09:03:06Z
2022-01-21T07:04:38Z,42.805,6.029,13.3048,4.60119,2470.25,2022-1-21T09:06:09Z
2022-01-21T07:07:41Z,42.805,6.029,13.3033,4.60117,2470.203,2022-1-21T09:09:12Z
2022-01-21T07:10:44Z,42.805,6.029,13.3039,4.60089,2470.189,2022-1-21T09:12:16Z
2022-01-21T07:13:47Z,42.805,6.029,13.3015,4.60093,2470.227,2022-1-21T09:15:19Z
2022-01-21T07:16:50Z,42.805,6.029,13.3039,4.60076,2470.24,2022-1-21T09:18:22Z
2022-01-21T07:19:53Z,42.805,6.029,13.3014,4.60099,2470.217,2022-1-21T09:21:25Z
2022-01-21T07:22:57Z,42.805,6.029,13.3032,4.60085,2470.24,2022-1-21T09:24:28Z
2022-01-21T07:26:00Z,42.805,6.029,13.3043,4.60084,2470.24,2022-1-21T09:27:31Z
2022-01-21T07:29:03Z,42.805,6.029,13.3055,4.60105,2470.203,2022-1-21T09:30:34Z
2022-01-21T07:32:06Z,42.805,6.029,13.3061,4.60099,2470.227,2022-1-21T09:33:37Z
2022-01-21T07:35:09Z,42.805,6.029,13.3051,4.60092,2470.264,2022-1-21T09:36:41Z
2022-01-21T07:38:12Z,42.805,6.029,13.3039,4.60127,2470.24,2022-1-21T09:39:44Z
2022-01-21T07:41:15Z,42.805,6.029,13.3051,4.60123,2470.264,2022-1-21T09:42:47Z
2022-01-21T07:44:18Z,42.805,6.029,13.3057,4.60114,2470.227,2022-1-21T09:45:50Z
2022-01-21T07:47:22Z,42.805,6.029,13.3031,4.60115,2470.273,2022-1-21T09:48:53Z
2022-01-21T07:50:25Z,42.805,6.029,13.3041,4.60081,2470.25,2022-1-21T09:51:56Z
2022-01-21T07:53:28Z,42.805,6.029,13.3038,4.60132,2470.24,2022-1-21T09:54:59Z
2022-01-21T07:56:31Z,42.805,6.029,13.3066,4.60131,2470.287,2022-1-21T09:58:02Z
2022-01-21T07:59:34Z,42.805,6.029,13.3069,4.60125,2470.227,2022-1-21T10:01:05Z
2022-01-21T08:02:37Z,42.805,6.029,13.3056,4.60120,2470.287,2022-1-21T10:04:09Z
2022-01-21T08:05:40Z,42.805,6.029,13.3022,4.60110,2470.287,2022-1-21T10:07:12Z
2022-01-21T08:08:43Z,42.805,6.029,13.3047,4.60073,2470.264,2022-1-21T10:10:15Z
2022-01-21T08:11:47Z,42.805,6.029,13.3047,4.60073,2470.273,2022-1-21T10:13:18Z
2022-01-21T08:14:50Z,42.805,6.029,13.3045,4.60102,2470.264,2022-1-21T10:16:21Z
2022-01-21T08:17:53Z,42.805,6.029,13.3042,4.60129,2470.31,2022-1-21T10:19:24Z
2022-01-21T08:20:56Z,42.805,6.029,13.3036,4.60119,2470.31,2022-1-21T10:22:27Z
2022-01-21T08:23:59Z,42.805,6.029,13.3040,4.60128,2470.297,2022-1-21T10:25:31Z
2022-01-21T08:27:02Z,42.805,6.029,13.3034,4.60125,2470.32,2022-1-21T10:28:34Z
2022-01-21T08:30:05Z,42.805,6.029,13.3041,4.60088,2470.32,2022-1-21T10:31:37Z
2022-01-21T08:33:08Z,42.805,6.029,13.3050,4.60098,2470.32,2022-1-21T10:34:40Z
2022-01-21T08:36:12Z,42.805,6.029,13.3056,4.60108,2470.31,2022-1-21T10:37:43Z
2022-01-21T08:39:15Z,42.805,6.029,13.3052,4.60089,2470.297,2022-1-21T10:40:46Z
2022-01-21T08:42:18Z,42.805,6.029,13.3026,4.60107,2470.287,2022-1-21T10:43:49Z
2022-01-21T08:45:21Z,42.805,6.029,13.3018,4.60093,2470.32,2022-1-21T10:46:52Z
2022-01-21T08:48:24Z,42.805,6.029,13.3031,4.60097,2470.297,2022-1-21T10:49:56Z
2022-01-21T08:51:27Z,42.805,6.029,13.3025,4.60105,2470.334,2022-1-21T10:52:59Z
2022-01-21T08:54:30Z,42.805,6.029,13.3034,4.60103,2470.32,2022-1-21T10:56:02Z
2022-01-21T08:57:33Z,42.805,6.029,13.3030,4.60101,2470.357,2022-1-21T10:59:05Z
2022-01-21T09:00:37Z,42.805,6.029,13.3034,4.60094,2470.32,2022-1-21T11:02:08Z
2022-01-21T09:03:40Z,42.805,6.029,13.3053,4.60102,2470.334,2022-1-21T11:05:11Z
2022-01-21T09:06:43Z,42.805,6.029,13.3041,4.60102,2470.297,2022-1-21T11:08:14Z
2022-01-21T09:09:46Z,42.805,6.029,13.3054,4.60085,2470.297,2022-1-21T11:11:17Z
2022-01-21T09:12:49Z,42.805,6.029,13.3045,4.60119,2470.273,2022-1-21T11:14:21Z
2022-01-21T09:15:52Z,42.805,6.029,13.3061,4.60099,2470.287,2022-1-21T11:17:24Z
2022-01-21T09:18:55Z,42.805,6.029,13.3029,4.60098,2470.297,2022-1-21T11:20:27Z
2022-01-21T09:21:58Z,42.805,6.029,13.3032,4.60112,2470.334,2022-1-21T11:23:30Z
2022-01-21T09:25:02Z,42.805,6.029,13.3027,4.60099,2470.32,2022-1-21T11:26:33Z
2022-01-21T09:28:05Z,42.805,6.029,13.3047,4.60068,2470.273,2022-1-21T11:29:36Z
2022-01-21T09:31:08Z,42.805,6.029,13.3048,4.60055,2470.297,2022-1-21T11:32:39Z
2022-01-21T09:34:11Z,42.805,6.029,13.3051,4.60095,2470.297,2022-1-21T11:35:42Z
2022-01-21T09:37:14Z,42.805,6.029,13.3032,4.60112,2470.273,2022-1-21T11:38:46Z
2022-01-21T09:40:17Z,42.805,6.029,13.3044,4.60101,2470.273,2022-1-21T11:41:49Z
2022-01-21T09:43:20Z,42.805,6.029,13.3037,4.60107,2470.297,2022-1-21T11:44:52Z
2022-01-21T09:46:23Z,42.805,6.029,13.3019,4.60111,2470.287,2022-1-21T11:47:55Z
2022-01-21T09:49:27Z,42.805,6.029,13.3035,4.60085,2470.264,2022-1-21T11:50:58Z
2022-01-21T09:52:30Z,42.805,6.029,13.3042,4.60078,2470.264,2022-1-21T11:54:01Z
2022-01-21T09:55:33Z,42.805,6.029,13.3036,4.60103,2470.273,2022-1-21T11:57:04Z
2022-01-21T09:58:36Z,42.805,6.029,13.3038,4.60122,2470.25,2022-1-21T12:00:08Z
2022-01-21T10:01:39Z,42.805,6.029,13.3034,4.60096,2470.287,2022-1-21T12:03:11Z
2022-01-21T10:04:42Z,42.805,6.029,13.3036,4.60104,2470.287,2022-1-21T12:06:14Z
2022-01-21T10:07:45Z,42.805,6.029,13.3030,4.60089,2470.25,2022-1-21T12:09:17Z
2022-01-21T10:10:49Z,42.805,6.029,13.3039,4.60105,2470.25,2022-1-21T12:12:20Z
2022-01-21T10:13:52Z,42.805,6.029,13.3041,4.60091,2470.273,2022-1-21T12:15:23Z
2022-01-21T10:16:55Z,42.805,6.029,13.3028,4.60092,2470.273,2022-1-21T12:18:26Z
2022-01-21T10:19:58Z,42.805,6.029,13.3021,4.60091,2470.25,2022-1-21T12:21:29Z
2022-01-21T10:23:01Z,42.805,6.029,13.3026,4.60075,2470.227,2022-1-21T12:24:33Z
2022-01-21T10:26:04Z,42.805,6.029,13.3027,4.60074,2470.227,2022-1-21T12:27:36Z
2022-01-21T10:29:07Z,42.805,6.029,13.3033,4.60083,2470.25,2022-1-21T12:30:39Z
2022-01-21T10:32:10Z,42.805,6.029,13.3012,4.60067,2470.273,2022-1-21T12:33:42Z
2022-01-21T10:35:14Z,42.805,6.029,13.3026,4.60067,2470.227,2022-1-21T12:36:45Z
2022-01-21T10:38:17Z,42.805,6.029,13.3024,4.60059,2470.24,2022-1-21T12:39:48Z
2022-01-21T10:41:20Z,42.805,6.029,13.3019,4.60077,2470.227,2022-1-21T12:42:51Z
2022-01-21T10:44:23Z,42.805,6.029,13.3021,4.60096,2470.217,2022-1-21T12:45:54Z
2022-01-21T10:47:26Z,42.805,6.029,13.3017,4.60086,2470.25,2022-1-21T12:48:58Z
2022-01-21T10:50:29Z,42.805,6.029,13.3024,4.60079,2470.24,2022-1-21T12:52:01Z
2022-01-21T10:53:32Z,42.805,6.029,13.3015,4.60094,2470.264,2022-1-21T12:55:04Z
2022-01-21T10:56:35Z,42.805,6.029,13.3014,4.60060,2470.217,2022-1-21T12:58:07Z
2022-01-21T10:59:39Z,42.805,6.029,13.3014,4.60064,2470.24,2022-1-21T13:01:10Z
2022-01-21T11:02:42Z,42.805,6.029,13.3011,4.60052,2470.203,2022-1-21T13:04:13Z
2022-01-21T11:05:45Z,42.805,6.029,13.3015,4.60064,2470.25,2022-1-21T13:07:16Z
2022-01-21T11:08:48Z,42.805,6.029,13.3014,4.60050,2470.24,2022-1-21T13:10:19Z
2022-01-21T11:11:51Z,42.805,6.029,13.3019,4.60072,2470.24,2022-1-21T13:13:23Z
2022-01-21T11:14:54Z,42.805,6.029,13.3034,4.60074,2470.217,2022-1-21T13:16:26Z
2022-01-21T11:17:57Z,42.805,6.029,13.3021,4.60055,2470.203,2022-1-21T13:19:29Z
2022-01-21T11:21:00Z,42.805,6.029,13.3011,4.60048,2470.264,2022-1-21T13:22:32Z
2022-01-21T11:24:04Z,42.805,6.029,13.3018,4.60057,2470.194,2022-1-21T13:25:35Z
2022-01-21T11:27:07Z,42.805,6.029,13.3013,4.60052,2470.25,2022-1-21T13:28:38Z
2022-01-21T11:30:10Z,42.805,6.029,13.3024,4.60067,2470.24,2022-1-21T13:31:41Z
2022-01-21T11:33:13Z,42.805,6.029,13.3026,4.60059,2470.217,2022-1-21T13:34:44Z
2022-01-21T11:36:16Z,42.805,6.029,13.3011,4.60047,2470.156,2022-1-21T13:37:48Z
2022-01-21T11:39:19Z,42.805,6.029,13.3012,4.60051,2470.18,2022-1-21T13:40:51Z
2022-01-21T11:42:22Z,42.805,6.029,13.3014,4.60057,2470.171,2022-1-21T13:43:54Z
2022-01-21T11:45:25Z,42.805,6.029,13.3011,4.60052,2470.18,2022-1-21T13:46:57Z
2022-01-21T11:48:29Z,42.805,6.029,13.3013,4.60066,2470.194,2022-1-21T13:50:00Z
2022-01-21T11:51:32Z,42.805,6.029,13.3012,4.60059,2470.156,2022-1-21T13:53:03Z
2022-01-21T11:54:35Z,42.805,6.029,13.3012,4.60053,2470.156,2022-1-21T13:56:06Z
2022-01-21T11:57:38Z,42.805,6.029,13.3014,4.60052,2470.194,2022-1-21T13:59:09Z
2022-01-21T12:00:41Z,42.805,6.029,13.3014,4.60052,2470.194,2022-1-21T14:02:13Z
2022-01-21T12:03:44Z,42.805,6.029,13.3023,4.60051,2470.156,2022-1-21T14:05:16Z
2022-01-21T12:06:47Z,42.805,6.029,13.3026,4.60057,2470.133,2022-1-21T14:08:19Z
2022-01-21T12:09:50Z,42.805,6.029,13.3026,4.60060,2470.133,2022-1-21T14:11:22Z
2022-01-21T12:12:54Z,42.805,6.029,13.3019,4.60057,2470.156,2022-1-21T14:14:25Z
2022-01-21T12:15:57Z,42.805,6.029,13.3019,4.60068,2470.171,2022-1-21T14:17:28Z
2022-01-21T12:19:00Z,42.805,6.029,13.3008,4.60049,2470.133,2022-1-21T14:20:31Z
2022-01-21T12:22:03Z,42.805,6.029,13.3017,4.60058,2470.147,2022-1-21T14:23:34Z
2022-01-21T12:25:06Z,42.805,6.029,13.3015,4.60053,2470.133,2022-1-21T14:26:38Z
2022-01-21T12:28:09Z,42.805,6.029,13.3014,4.60056,2470.147,2022-1-21T14:29:41Z
2022-01-21T12:31:12Z,42.805,6.029,13.3015,4.60056,2470.147,2022-1-21T14:32:44Z
2022-01-21T12:34:16Z,42.805,6.029,13.3015,4.60057,2470.11,2022-1-21T14:35:47Z
2022-01-21T12:37:19Z,42.805,6.029,13.3015,4.60049,2470.124,2022-1-21T14:38:50Z
2022-01-21T12:40:22Z,42.805,6.029,13.3011,4.60049,2470.087,2022-1-21T14:41:53Z
2022-01-21T12:43:25Z,42.805,6.029,13.3017,4.60085,2470.124,2022-1-21T14:44:56Z
2022-01-21T12:46:28Z,42.805,6.029,13.3020,4.60052,2470.124,2022-1-21T14:48:00Z
2022-01-21T12:49:31Z,42.805,6.029,13.3010,4.60052,2470.124,2022-1-21T14:51:03Z
2022-01-21T12:52:34Z,42.805,6.029,13.3011,4.60045,2470.124,2022-1-21T14:54:06Z
2022-01-21T12:55:37Z,42.805,6.029,13.3006,4.60061,2470.11,2022-1-21T14:57:09Z
2022-01-21T12:58:41Z,42.805,6.029,13.3014,4.60051,2470.063,2022-1-21T15:00:12Z
2022-01-21T13:01:44Z,42.805,6.029,13.3026,4.60069,2470.063,2022-1-21T15:03:15Z
2022-01-21T13:04:47Z,42.805,6.029,13.3015,4.60057,2470.1,2022-1-21T15:06:18Z
2022-01-21T13:07:50Z,42.805,6.029,13.3011,4.60049,2470.1,2022-1-21T15:09:21Z
2022-01-21T13:10:53Z,42.805,6.029,13.3018,4.60058,2470.087,2022-1-21T15:12:25Z
2022-01-21T13:13:56Z,42.805,6.029,13.3014,4.60052,2470.063,2022-1-21T15:15:28Z
2022-01-21T13:16:59Z,42.805,6.029,13.3014,4.60076,2470.124,2022-1-21T15:18:31Z
2022-01-21T13:20:02Z,42.805,6.029,13.3020,4.60072,2470.133,2022-1-21T15:21:34Z
2022-01-21T13:23:06Z,42.805,6.029,13.3016,4.60069,2470.1,2022-1-21T15:24:37Z
2022-01-21T13:26:09Z,42.805,6.029,13.3009,4.60064,2470.087,2022-1-21T15:27:40Z
2022-01-21T13:29:12Z,42.805,6.029,13.3012,4.60069,2470.077,2022-1-21T15:30:43Z
2022-01-21T13:32:15Z,42.805,6.029,13.3015,4.60079,2470.1,2022-1-21T15:33:47Z
2022-01-21T13:35:18Z,42.805,6.029,13.3020,4.60081,2470.077,2022-1-21T15:36:50Z
2022-01-21T13:38:21Z,42.805,6.029,13.3009,4.60051,2470.11,2022-1-21T15:39:53Z
2022-01-21T13:41:24Z,42.805,6.029,13.3014,4.60046,2470.1,2022-1-21T15:42:56Z
2022-01-21T13:44:27Z,42.805,6.029,13.3012,4.60050,2470.11,2022-1-21T15:45:59Z
2022-01-21T13:47:31Z,42.805,6.029,13.3014,4.60052,2470.077,2022-1-21T15:49:02Z
2022-01-21T13:50:34Z,42.805,6.029,13.3020,4.60068,2470.1,2022-1-21T15:52:05Z
2022-01-21T13:53:37Z,42.805,6.029,13.3022,4.60072,2470.053,2022-1-21T15:55:08Z
2022-01-21T13:56:40Z,42.805,6.029,13.3021,4.60067,2470.063,2022-1-21T15:58:12Z
2022-01-21T13:59:43Z,42.805,6.029,13.3014,4.60080,2470.053,2022-1-21T16:01:15Z
2022-01-21T14:02:46Z,42.805,6.029,13.3019,4.60066,2470.1,2022-1-21T16:04:18Z
2022-01-21T14:05:49Z,42.805,6.029,13.3017,4.60059,2470.063,2022-1-21T16:07:21Z
2022-01-21T14:08:53Z,42.805,6.029,13.3026,4.60060,2470.053,2022-1-21T16:10:24Z
2022-01-21T14:11:56Z,42.805,6.029,13.3017,4.60049,2470.1,2022-1-21T16:13:27Z
2022-01-21T14:14:59Z,42.805,6.029,13.3010,4.60046,2470.04,2022-1-21T16:16:30Z
2022-01-21T14:18:02Z,42.805,6.029,13.3011,4.60046,2470.04,2022-1-21T16:19:33Z
2022-01-21T14:21:05Z,42.805,6.029,13.3010,4.60044,2470.077,2022-1-21T16:22:37Z
2022-01-21T14:24:08Z,42.805,6.029,13.3011,4.60054,2470.063,2022-1-21T16:25:40Z
2022-01-21T14:27:11Z,42.805,6.029,13.3020,4.60069,2470.077,2022-1-21T16:28:43Z
2022-01-21T14:30:14Z,42.805,6.029,13.3019,4.60067,2470.04,2022-1-21T16:31:46Z
2022-01-21T14:33:18Z,42.805,6.029,13.3015,4.60054,2470.063,2022-1-21T16:34:49Z
2022-01-21T14:36:21Z,42.805,6.029,13.3023,4.60061,2470.077,2022-1-21T16:37:52Z
2022-01-21T14:39:24Z,42.805,6.029,13.3019,4.60061,2470.077,2022-1-21T16:40:55Z
2022-01-21T14:42:27Z,42.805,6.029,13.3016,4.60072,2470.04,2022-1-21T16:43:58Z
2022-01-21T14:45:30Z,42.805,6.029,13.3028,4.60066,2470.077,2022-1-21T16:47:02Z
2022-01-21T14:48:33Z,42.805,6.029,13.3025,4.60087,2470.063,2022-1-21T16:50:05Z
2022-01-21T14:51:36Z,42.805,6.029,13.3021,4.60084,2470.063,2022-1-21T16:53:08Z
2022-01-21T14:54:39Z,42.805,6.029,13.3014,4.60049,2470.053,2022-1-21T16:56:11Z
2022-01-21T14:57:43Z,42.805,6.029,13.3017,4.60077,2470.053,2022-1-21T16:59:14Z
2022-01-21T15:00:46Z,42.805,6.029,13.3019,4.60074,2470.053,2022-1-21T17:02:17Z
2022-01-21T15:03:49Z,42.805,6.029,13.3016,4.60087,2470.063,2022-1-21T17:05:20Z
2022-01-21T15:06:52Z,42.805,6.029,13.3015,4.60065,2470.017,2022-1-21T17:08:24Z
2022-01-21T15:09:55Z,42.805,6.029,13.3013,4.60064,2470.04,2022-1-21T17:11:27Z
2022-01-21T15:12:58Z,42.805,6.029,13.3011,4.60050,2470.017,2022-1-21T17:14:30Z
2022-01-21T15:16:01Z,42.805,6.029,13.3021,4.60055,2470.053,2022-1-21T17:17:33Z
2022-01-21T15:19:04Z,42.805,6.029,13.3026,4.60072,2470.017,2022-1-21T17:20:36Z
2022-01-21T15:22:08Z,42.805,6.029,13.3031,4.60092,2470.053,2022-1-21T17:23:39Z
2022-01-21T15:25:11Z,42.805,6.029,13.3027,4.60076,2470.017,2022-1-21T17:26:42Z
2022-01-21T15:28:14Z,42.805,6.029,13.3018,4.60088,2470.007,2022-1-21T17:29:45Z
2022-01-21T15:31:17Z,42.805,6.029,13.3029,4.60079,2470.007,2022-1-21T17:32:49Z
2022-01-21T15:34:20Z,42.805,6.029,13.3029,4.60084,2470.04,2022-1-21T17:35:52Z